EW1858 Weather Reports


time (UTC)temp
F
wind
direction
speed
knots
gust
knots
rain 1hr
in
rain 24hr
in
rain mn
in
humidity
%
barometer
mb
20260504050117 39 320 0.0 0.0 0.00 0.00 0.00 77 1013.6
20260504044547 40 320 0.0 0.0 0.00 0.00 0.00 77 1013.7
20260504043044 40 320 0.0 0.0 0.00 0.00 0.00 75 1013.6
20260504041538 41 320 0.0 0.0 0.00 0.00 0.00 74 1013.6
20260504040036 42 320 0.0 0.0 0.00 0.00 0.00 72 1013.6
20260504034540 43 320 0.0 0.0 0.00 0.00 0.00 71 1013.7
20260504033030 44 319 0.0 0.9 0.00 0.00 0.00 68 1013.6
20260504031601 44 319 0.0 0.0 0.00 0.00 0.00 67 1013.6
20260504030057 45 320 0.0 1.7 0.00 0.00 0.00 65 1013.5
20260504024553 45 320 0.0 1.7 0.00 0.00 0.00 66 1013.6
20260504023054 46 320 0.9 2.6 0.00 0.00 0.00 63 1013.4
20260504021545 50 44 1.7 4.3 0.00 0.00 0.00 56 1013.4
20260504020045 52 98 0.9 7.0 0.00 0.00 0.00 48 1013.4
20260504014515 52 86 1.7 5.2 0.00 0.00 0.00 48 1013.4
20260504013014 53 64 1.7 7.0 0.00 0.00 0.00 46 1013.3
20260504011512 54 84 0.9 4.3 0.00 0.00 0.00 45 1013.2
20260504010011 54 68 1.7 4.3 0.00 0.00 0.00 45 1013.1
20260504004519 55 92 2.6 7.8 0.00 0.00 0.00 42 1013.1
20260504003011 56 94 2.6 7.8 0.00 0.00 0.00 42 1012.9
20260504001510 55 96 0.9 7.0 0.00 0.00 0.00 43 1012.9
20260504000009 56 113 2.6 5.2 0.00 0.00 0.00 41 1012.7
20260503234512 57 85 3.5 10.4 0.00 0.00 0.00 40 1012.6
20260503233007 58 150 2.6 4.3 0.00 0.00 0.00 39 1012.6
20260503231537 58 108 0.9 8.7 0.00 0.00 0.00 38 1012.4
20260503230041 59 150 1.7 4.3 0.00 0.00 0.00 38 1012.5
20260503224507 59 108 2.6 12.2 0.00 0.00 0.00 37 1012.4
20260503223006 61 98 3.5 7.8 0.00 0.00 0.00 35 1012.4
20260503221534 61 103 0.9 4.3 0.00 0.00 0.00 35 1012.4
20260503220045 61 113 2.6 5.2 0.00 0.00 0.00 36 1012.6
20260503214503 60 143 3.5 12.2 0.00 0.00 0.00 36 1012.6
20260503213008 60 92 1.7 8.7 0.00 0.00 0.00 36 1012.5
20260503211532 60 60 2.6 7.8 0.00 0.00 0.00 36 1012.4
20260503210032 60 98 3.5 12.2 0.00 0.00 0.00 36 1012.4
20260503204503 60 120 4.3 10.4 0.00 0.00 0.00 35 1012.4
20260503203001 60 206 5.2 17.4 0.00 0.00 0.00 36 1012.5
20260503201529 61 123 2.6 13.0 0.00 0.00 0.00 36 1012.8
20260503200025 59 217 3.5 10.4 0.00 0.00 0.00 35 1013.2
20260503194519 60 152 5.2 10.4 0.00 0.00 0.00 35 1013.5
20260503193015 59 297 5.2 12.2 0.00 0.00 0.00 36 1013.5
20260503191519 60 206 2.6 9.6 0.00 0.00 0.00 37 1013.9
20260503190010 60 138 2.6 8.7 0.00 0.00 0.00 39 1014.0
20260503184505 59 120 5.2 10.4 0.00 0.00 0.00 38 1014.3
20260503183004 58 249 2.6 13.9 0.00 0.00 0.00 38 1014.2
20260503181503 58 125 5.2 12.2 0.00 0.00 0.00 39 1014.4
20260503180003 58 101 5.2 10.4 0.00 0.00 0.00 38 1014.4
20260503174529 58 121 2.6 8.7 0.00 0.00 0.00 39 1014.4
20260503173027 57 145 2.6 7.0 0.00 0.00 0.00 40 1014.6
20260503171555 56 115 2.6 7.0 0.00 0.00 0.00 40 1014.8
20260503081534 37 164 2.6 7.0 0.00 0.00 0.00 72 1014.8
20260503071526 37 30 1.7 2.6 0.00 0.00 0.00 72 1014.3
20260503054553 39 131 0.9 3.5 0.00 0.00 0.00 73 1014.4